Location: Gu�tanj
(46.5431°N, 14.9692°E)
Time: 13:30:42
(UTC+00:00)

SL-8 Rocket - Pass Details

Date: 03 March 2021
Orbit: 957 x 991 km, 82.9° (Epoch: 14 April)

Event Time Altitude Azimuth Distance (km) Brightness Sun altitude
Rises 18:05:53 0° 168° (SSE) 3,669 6.8 -14.0°
Reaches altitude 10° 18:08:28 10° 162° (SSE) 2,721 6.1 -14.4°
Maximum altitude 18:14:24 48° 91° (E) 1,254 4.2 -15.4°
Drops below altitude 10° 18:20:19 10° 19° (NNE) 2,716 6.2 -16.5°
Sets 18:22:53 0° 14° (NNE) 3,663 7.0 -16.9°
